Location: Blairvadach
(56.2780°N, 6.9720°W)
Time: 13:04:16
(UTC+00:00)

Envisat - Pass Details

Date: 22 November 2019
Orbit: 764 x 766 km, 98.1° (Epoch: 07 December)

Event Time Altitude Azimuth Distance (km) Brightness Sun altitude
Rises 18:46:49 0° 182° (S) 3,223 6.3 -21.2°
Reaches altitude 10° 18:49:12 10° 189° (S) 2,301 5.6 -21.5°
Maximum altitude 18:54:04 46° 262° (W) 1,033 4.1 -22.2°
Drops below altitude 10° 18:58:59 10° 335° (NNW) 2,317 5.7 -22.9°
Sets 19:01:24 0° 342° (NNW) 3,247 6.5 -23.2°
